#timestamp,LO_Frequency,Hit,StdDev 
1549987215.8,286047001.9,N
1549987235.7,286047003.9,Y
1549987255.5,286047001.9,P
1549987275.3,286047003.2,P
1549987295.2,286047001.7,N
1549987315.0,286047002.2,Y
1549987315.9,286047002.2,P
1549987335.8,286046998.9,P
1549987355.6,286046998.9,N
1549987375.4,286046999.3,N
1549987395.3,286046999.4,N
1549987415.1,286046999.1,N
1549987435.8,286046999.0,N
1549987455.7,286046999.5,N
1549987475.5,286046999.3,N
1549987495.4,286046999.3,N
1549987515.2,286046997.0,N
1549987535.0,286046997.9,N
1549987535.9,286046997.9,N
1549987555.8,286046995.9,Y
1549987575.6,286046995.9,P
1549987595.4,286046994.6,P
1549987615.3,286046990.1,P
1549987635.1,286046990.1,Y
1549987655.9,286046995.2,P
1549987675.7,286046996.4,P
1549987695.5,286046996.4,P
1549987715.4,286046996.3,Y
1549987735.2,286046999.1,P
1549987755.1,286046999.5,N
1549987756.0,286046999.5,N
1549987775.8,286046996.8,N
1549987795.6,286046995.3,Y
1549987815.5,286046996.6,P
1549987835.3,286046997.8,N
1549987855.2,286046995.3,P
1549987875.9,286046993.3,Y
1549987895.7,286046995.1,P
1549987915.6,286046995.0,P
1549987935.4,286046995.2,P
1549987955.3,286046996.3,Y
1549987975.1,286046998.9,P
1549987976.0,286046998.9,N
1549987995.8,286046998.1,N
1549988015.7,286047000.6,N
1549988035.5,286046998.1,N
1549988055.3,286047000.6,N
1549988075.2,286047000.4,N
1549988095.0,286046998.3,N
1549988095.9,286046998.3,N
1549988115.8,286046998.6,N
1549988135.6,286046998.9,N
1549988155.4,286046998.2,N
1549988175.3,286046998.9,N
1549988195.1,286046996.7,N
1549988215.8,286046997.3,N
1549988235.7,286046998.1,N
1549988255.5,286047000.1,N
1549988275.4,286047001.0,N
1549988295.2,286047001.2,N
1549988315.0,286047002.2,N
1549988315.9,286047002.2,N
1549988335.8,286047001.4,N
1549988355.6,286047001.3,N
1549988375.4,286047003.3,N
1549988395.3,286047004.4,N
1549988415.1,286047004.2,N
1549988435.9,286047004.3,N
1549988455.7,286046999.7,N
1549988475.5,286046999.8,N
1549988495.4,286047001.0,N
1549988515.2,286046998.5,N
1549988535.0,286047000.7,N
1549988535.9,286047000.7,N
1549988555.8,286046999.0,N
1549988575.6,286046999.0,N
1549988595.5,286046996.9,N
1549988615.3,286046996.5,N
1549988635.1,286046997.5,N
1549988655.9,286046997.6,N
1549988675.7,286046997.5,N
1549988695.6,286046998.0,N
1549988715.4,286046995.2,N
1549988735.2,286046997.9,N
1549988755.1,286046997.6,N
1549988756.0,286046997.6,N
1549988775.8,286046997.6,N
1549988795.6,286046995.5,N
1549988815.5,286046995.9,N
1549988835.3,286046996.0,N
1549988855.2,286046997.4,N
1549988875.9,286046994.9,N
1549988895.7,286046995.5,N
1549988915.6,286046995.6,N
1549988935.4,286046997.4,N
1549988955.2,286046996.5,N
1549988975.1,286046997.7,N
1549988976.0,286046997.7,N
1549988995.8,286046997.1,N
1549989015.7,286046996.5,N
1549989035.5,286046997.3,N
1549989055.3,286046998.0,N
1549989075.2,286046995.8,Y
1549989095.0,286046997.3,P
1549989095.9,286046997.3,P
1549989115.8,286046997.5,P
1549989135.6,286046997.5,Y
1549989155.4,286046999.4,P
1549989175.3,286047000.7,N
1549989195.1,286047000.3,N
1549989215.8,286047000.4,N
1549989235.7,286047002.5,N
1549989255.5,286047001.5,N
1549989275.4,286047001.4,N
1549989295.2,286047003.1,N
1549989315.0,286047003.8,N
1549989315.9,286047003.8,N
1549989335.8,286047003.2,N
1549989355.6,286047005.7,Y
1549989375.5,286047004.0,P
1549989395.3,286047004.2,P
1549989415.1,286047004.1,P
1549989435.9,286047003.8,Y
1549989455.7,286047000.3,P
1549989475.5,286046999.8,N
1549989495.4,286047002.0,N
1549989515.2,286047004.4,Y
1549989535.1,286047000.2,P
1549989536.0,286047000.2,N
1549989555.8,286047000.1,N
1549989575.6,286047000.1,N
1549989595.5,286047002.8,Y
1549989615.3,286046999.8,P
1549989635.2,286047000.4,N
1549989655.9,286047000.5,N
1549989675.7,286047001.1,Y
1549989695.6,286047001.1,P
1549989715.4,286047000.6,N
1549989735.3,286047002.8,P
1549989755.1,286047001.9,N
1549989756.0,286047001.9,N
1549989775.8,286047002.4,N
1549989795.7,286047002.7,Y
1549989815.5,286047000.4,P
1549989835.3,286047002.7,P
1549989855.2,286047001.9,N
1549989875.0,286046999.8,N
1549989875.9,286046999.8,N
1549989895.8,286047004.0,Y
1549989915.6,286047000.6,P
1549989935.4,286046998.2,P
1549989955.3,286046999.1,N
1549989975.1,286046996.6,Y
1549989995.9,286046999.4,P
1549990015.7,286046999.3,P
1549990035.5,286046998.4,P
1549990055.4,286046998.3,Y
1549990075.2,286046998.2,P
1549990095.0,286047001.2,N
1549990096.0,286047001.2,N
1549990115.8,286047000.3,N
1549990135.6,286047000.5,N
1549990155.5,286047000.0,N
1549990175.3,286047002.7,N
1549990195.1,286047000.9,N
1549990215.9,286047000.1,N
1549990235.7,286047000.1,N
1549990255.6,286047001.9,N
1549990275.4,286047002.6,N
1549990295.2,286047002.6,N
1549990315.1,286047002.8,N
1549990316.0,286047002.8,N
1549990335.8,286047002.2,N
1549990355.6,286047002.5,N
1549990375.5,286047002.0,N
1549990395.3,286047002.8,N
1549990415.2,286046999.9,N
1549990435.9,286047000.2,N
1549990455.7,286047000.4,N
1549990475.6,286047002.7,N
1549990495.4,286046999.8,N
1549990515.2,286047001.3,N
1549990535.1,286047004.2,Y
1549990536.0,286047004.2,P
1549990555.8,286047001.5,N
1549990575.7,286047006.0,P
1549990595.5,286047003.2,N
1549990615.3,286047003.3,N
1549990635.2,286047003.5,N
1549990655.0,286047004.0,N
1549990655.9,286047004.0,N
1549990675.8,286047001.7,N
1549990695.6,286047004.0,N
1549990715.4,286047004.0,N
1549990735.3,286047003.5,N
1549990755.1,286047003.7,N
1549990775.8,286047004.3,Y
1549990795.7,286046996.9,P
